Regional Weather Roundup
Issued by NWS Little Rock, AR

Home | Current Version | Previous Version | Text Only | Print | Product List | Glossary On
Versions: 1 2 3 4 5 6 7 8 9 10 11 12 13 14 15 16 17 18 19 20 21 22 23 24 25 26 27 28 29 30 31 32
000
ASUS44 KLZK 260705
RWRLZK

WEATHER ROUNDUP FOR ARKANSAS
NATIONAL WEATHER SERVICE LITTLE ROCK AR
200 AM CDT MON SEP 26 2016

NOTE: "FAIR" INDICATES FEW OR NO CLOUDS BELOW 12,000 FEET WITH NO
SIGNIFICANT WEATHER AND/OR OBSTRUCTIONS TO VISIBILITY.

ARZ001-003-010-029-260800-
NORTHWEST ARKANSAS

CITY           SKY/WX    TMP DP  RH WIND       PRES   REMARKS
FAYETTEVILLE   LGT RAIN  58  57  97 NE5       30.20R
FORT SMITH     CLOUDY    70  61  73 N8        30.12S
HARRISON       CLOUDY    62  60  93 N6        30.19R
BENTONVILLE    MOCLDY    61  54  77 NE7       30.20S
ROGERS         LGT RAIN  60  57  89 NE9       30.21S
SILOAM SPGS    CLOUDY   N/A N/A N/A NE5         N/A
HIGHFILL       LGT RAIN  60  58  92 NE9       30.20S
$$

ARZ004-005-016-260800-
NORTH CENTRAL ARKANSAS

CITY           SKY/WX    TMP DP  RH WIND       PRES   REMARKS
BATESVILLE     CLOUDY    73  68  83 NW10G18   30.07R
FLIPPIN        CLOUDY    64  57  77 N6        30.14R
MTN HOME       LGT RAIN  62  60  93 N7        30.16S
$$

ARZ040-041-260800-
WEST CENTRAL ARKANSAS

CITY           SKY/WX    TMP DP  RH WIND       PRES   REMARKS
MENA           PTCLDY    73  72  94 NW7       30.10S
MOUNT IDA      PTCLDY    71  69  93 W3        30.06S
$$

ARZ009-017-025-026-028-260800-
NORTHEAST ARKANSAS

CITY           SKY/WX    TMP DP  RH WIND       PRES   REMARKS
CORNING          N/A     73  72  94 N9        30.04R
JONESBORO      PTCLDY    77  70  79 N8        30.01R
NEWPORT        CLOUDY    74  69  85 NW12      30.04R
WALNUT RIDGE   CLOUDY    73  66  78 NW13      30.03R
BLYTHEVILLE    CLOUDY    77  70  79 S6        29.99F
$$

ARZ022-023-033-042-044-260800-
CENTRAL ARKANSAS

CITY           SKY/WX    TMP DP  RH WIND       PRES   REMARKS
LITTLE ROCK    CLOUDY    77  69  76 N12       30.06R
N LITTLE ROCK    N/A     74  69  86 N8        30.00S
JACKSONVILLE   CLOUDY    76  70  83 NW5       30.03R
SEARCY         CLOUDY    76  70  82 N10       30.05R
HOT SPRINGS    CLEAR     73  70  90 SW3       30.04S
RUSSELLVILLE   CLOUDY    74  67  78 N12       30.07S
$$

ARZ036-260800-
EAST ARKANSAS

CITY           SKY/WX    TMP DP  RH WIND       PRES   REMARKS
WEST MEMPHIS   PTCLDY    72  67  84 CALM      29.99S
$$

ARZ050-053-066-070-073-260800-
SOUTHWEST ARKANSAS

CITY           SKY/WX    TMP DP  RH WIND       PRES   REMARKS
ARKADELPHIA    FAIR      74  70  87 N5        30.03S
TEXARKANA      PTCLDY    74  70  87 NW5       30.03S
EL DORADO      PTCLDY    71  70  96 CALM      30.02S
DE QUEEN       PTCLDY    75  71  87 NE7       30.03S
$$

ARZ056-057-069-260800-
SOUTHEAST ARKANSAS

CITY           SKY/WX    TMP DP  RH WIND       PRES   REMARKS
PINE BLUFF     MOCLDY    73  70  90 CALM      30.01S
STUTTGART      CLOUDY    75  70  83 CALM      30.01S
MONTICELLO     CLOUDY    74  71  91 CALM      30.00F

$$






USA.gov is the U.S. government's official web portal to all federal, state and local government web resources and services.